Location: Doschendorf
(50.0069°N, 11.0602°E)
Time: 12:39:16
(UTC+00:00)

Lacrosse 4 Rocket - Pass Details

Date: 17 November 2019
Orbit: 543 x 616 km, 68.0° (Epoch: 14 December)

Event Time Altitude Azimuth Distance (km) Brightness Sun altitude
Rises 18:31:04 0° 246° (WSW) 2,709 5.8 -28.9°
Reaches altitude 10° 18:33:32 10° 259° (W) 1,815 4.8 -29.3°
Enters shadow 18:36:36 26° 308° (NW) 1,106 3.3 -29.8°
